GW5903 Weather Reports


time (UTC)temp
C
wind
direction
speed
KPH
gust
KPH
rain 1hr
cm
rain 24hr
cm
rain mn
cm
humidity
%
barometer
mb
20260510231039 20 126 17.7 29.0 0.00 0.00 0.00 34 1025.6
20260510230542 20 136 20.9 33.8 0.00 0.00 0.00 34 1025.4
20260510230043 20 116 22.5 33.8 0.00 0.00 0.00 34 1025.6
20260510225538 20 119 19.3 35.4 0.00 0.00 0.00 33 1025.5
20260510225038 20 119 17.7 35.4 0.00 0.00 0.00 33 1025.6
20260510224543 20 132 20.9 33.8 0.00 0.00 0.00 33 1025.5
20260510224039 20 155 20.9 32.2 0.00 0.00 0.00 32 1025.5
20260510223538 20 125 24.1 30.6 0.00 0.00 0.00 33 1025.5
20260510223050 20 130 20.9 33.8 0.00 0.00 0.00 34 1025.4
20260510222538 20 123 24.1 33.8 0.00 0.00 0.00 34 1025.5
20260510222037 21 127 19.3 32.2 0.00 0.00 0.00 33 1025.3
20260510221547 20 132 19.3 37.0 0.00 0.00 0.00 34 1025.5
20260510221041 21 136 27.4 37.0 0.00 0.00 0.00 34 1025.7
20260510220539 20 102 25.7 35.4 0.00 0.00 0.00 34 1025.5
20260510220047 20 148 19.3 29.0 0.00 0.00 0.00 35 1025.5
20260510215538 20 103 19.3 27.4 0.00 0.00 0.00 35 1025.7
20260510215038 20 113 19.3 29.0 0.00 0.00 0.00 35 1025.8
20260510214545 20 105 22.5 29.0 0.00 0.00 0.00 39 1025.9
20260510214039 20 113 19.3 25.7 0.00 0.00 0.00 39 1026.1
20260510213539 18 92 19.3 29.0 0.00 0.00 0.00 43 1025.9
20260510213053 18 101 19.3 29.0 0.00 0.00 0.00 42 1026.0
20260510212539 19 115 22.5 27.4 0.00 0.00 0.00 38 1026.1
20260510212040 19 110 19.3 30.6 0.00 0.00 0.00 38 1026.1
20260510211550 20 124 24.1 30.6 0.00 0.00 0.00 37 1025.8
20260510211039 19 133 22.5 30.6 0.00 0.00 0.00 37 1025.9
20260510210539 18 134 22.5 30.6 0.00 0.00 0.00 40 1025.9
20260510210043 18 114 20.9 27.4 0.00 0.00 0.00 39 1025.9
20260510205539 18 123 17.7 27.4 0.00 0.00 0.00 40 1025.6
20260510205040 18 138 20.9 29.0 0.00 0.00 0.00 40 1025.8
20260510204546 17 135 20.9 40.2 0.00 0.00 0.00 40 1025.7
20260510204040 17 102 29.0 40.2 0.00 0.00 0.00 37 1025.6
20260510203540 18 121 22.5 35.4 0.00 0.00 0.00 37 1025.6
20260510203043 19 134 20.9 30.6 0.00 0.00 0.00 34 1025.6
20260510202543 19 146 25.7 30.6 0.00 0.00 0.00 34 1025.7
20260510202113 19 159 19.3 30.6 0.00 0.00 0.00 33 1025.5
20260510201554 20 115 17.7 33.8 0.00 0.00 0.00 32 1025.5
20260510201040 19 139 17.7 33.8 0.00 0.00 0.00 32 1025.3
20260510200540 20 145 22.5 32.2 0.00 0.00 0.00 32 1025.1
20260510200050 20 163 22.5 30.6 0.00 0.00 0.00 31 1024.8
20260510195540 20 159 22.5 35.4 0.00 0.00 0.00 30 1024.7
20260510195041 20 154 17.7 35.4 0.00 0.00 0.00 29 1024.5
20260510194549 21 220 16.1 25.7 0.00 0.00 0.00 26 1024.5
20260510194040 21 205 14.5 27.4 0.00 0.00 0.00 28 1024.4
20260510193541 21 171 16.1 27.4 0.00 0.00 0.00 28 1024.4
20260510193051 21 116 12.9 30.6 0.00 0.00 0.00 27 1024.5
20260510192540 22 121 16.1 30.6 0.00 0.00 0.00 26 1024.3
20260510192040 23 140 24.1 30.6 0.00 0.00 0.00 25 1024.6
20260510191548 22 144 6.4 24.1 0.00 0.00 0.00 26 1024.4
20260510191040 22 234 11.3 29.0 0.00 0.00 0.00 26 1024.6
20260510190540 22 148 16.1 29.0 0.00 0.00 0.00 26 1024.6
20260510190052 22 163 17.7 27.4 0.00 0.00 0.00 26 1024.8
20260510185540 22 202 12.9 30.6 0.00 0.00 0.00 26 1024.7
20260510185041 22 112 16.1 30.6 0.00 0.00 0.00 27 1024.7
20260510184615 21 114 12.9 29.0 0.00 0.00 0.00 27 1024.7
20260510184043 21 185 6.4 29.0 0.00 0.00 0.00 27 1024.7
20260510183539 21 144 8.0 22.5 0.00 0.00 0.00 27 1024.8
20260510183046 21 351 6.4 27.4 0.00 0.00 0.00 28 1025.0
20260510182538 21 117 14.5 27.4 0.00 0.00 0.00 28 1025.1
20260510182037 21 145 12.9 27.4 0.00 0.00 0.00 29 1025.2
20260510181555 21 167 17.7 27.4 0.00 0.00 0.00 30 1025.3
20260510181038 20 109 8.0 29.0 0.00 0.00 0.00 29 1025.1
20260510180542 21 165 11.3 29.0 0.00 0.00 0.00 29 1025.1
20260510180101 21 178 16.1 27.4 0.00 0.00 0.00 28 1025.2
20260510175537 21 149 9.7 22.5 0.00 0.00 0.00 29 1025.3
20260510175037 21 186 16.1 20.9 0.00 0.00 0.00 29 1025.3
20260510174546 20 187 4.8 19.3 0.00 0.00 0.00 30 1025.3
20260510174038 20 141 8.0 29.0 0.00 0.00 0.00 29 1025.3
20260510173538 21 113 12.9 29.0 0.00 0.00 0.00 29 1025.3
20260510173047 21 176 14.5 24.1 0.00 0.00 0.00 30 1025.2
20260510172541 20 146 14.5 20.9 0.00 0.00 0.00 30 1025.2
20260510172038 20 128 12.9 20.9 0.00 0.00 0.00 31 1025.2
20260510171559 20 126 11.3 27.4 0.00 0.00 0.00 31 1025.2
20260510171041 20 139 8.0 27.4 0.00 0.00 0.00 33 1025.1
20260510170538 20 101 16.1 27.4 0.00 0.00 0.00 32 1025.1
20260510170049 20 148 16.1 32.2 0.00 0.00 0.00 32 1025.1
20260510165539 20 72 17.7 35.4 0.00 0.00 0.00 33 1025.1
20260510165037 20 131 20.9 35.4 0.00 0.00 0.00 34 1025.3
20260510164543 20 101 20.9 29.0 0.00 0.00 0.00 33 1025.2
20260510164037 20 108 14.5 27.4 0.00 0.00 0.00 33 1025.0
20260510163537 20 111 17.7 33.8 0.00 0.00 0.00 32 1025.2
20260510163051 20 103 20.9 33.8 0.00 0.00 0.00 32 1025.1
20260510162539 20 106 17.7 25.7 0.00 0.00 0.00 32 1024.9
20260510162038 20 105 12.9 22.5 0.00 0.00 0.00 28 1024.7
20260510161548 20 161 11.3 22.5 0.00 0.00 0.00 28 1024.9
20260510161038 20 146 16.1 22.5 0.00 0.00 0.00 30 1024.9
20260510160538 19 138 9.7 22.5 0.00 0.00 0.00 30 1024.7
20260510160052 19 137 14.5 22.5 0.00 0.00 0.00 29 1024.9
20260510155537 19 139 14.5 20.9 0.00 0.00 0.00 29 1024.8
20260510155038 19 159 9.7 24.1 0.00 0.00 0.00 30 1024.8
20260510154612 19 175 11.3 24.1 0.00 0.00 0.00 29 1024.6
20260510154038 18 167 11.3 24.1 0.00 0.00 0.00 30 1024.4
20260510153537 19 144 16.1 24.1 0.00 0.00 0.00 30 1024.5
20260510153100 18 137 14.5 22.5 0.00 0.00 0.00 30 1024.6
20260510152538 18 172 11.3 22.5 0.00 0.00 0.00 31 1024.4
20260510152045 18 192 11.3 20.9 0.00 0.00 0.00 31 1024.4
20260510151550 18 167 9.7 20.9 0.00 0.00 0.00 32 1024.4
20260510151038 17 167 8.0 16.1 0.00 0.00 0.00 32 1024.3
20260510150538 17 190 9.7 17.7 0.00 0.00 0.00 32 1024.4
20260510150056 17 194 11.3 17.7 0.00 0.00 0.00 33 1024.4
20260510145538 17 173 11.3 19.3 0.00 0.00 0.00 33 1024.4
20260510145038 17 172 12.9 19.3 0.00 0.00 0.00 33 1024.3
20260510144616 17 207 11.3 19.3 0.00 0.00 0.00 33 1024.0
20260510144038 17 169 14.5 20.9 0.00 0.00 0.00 33 1024.2
20260510143538 17 192 14.5 20.9 0.00 0.00 0.00 33 1024.1
20260510143048 17 194 8.0 14.5 0.00 0.00 0.00 33 1024.0
20260510142537 16 184 9.7 16.1 0.00 0.00 0.00 33 1024.0
20260510142039 16 201 11.3 16.1 0.00 0.00 0.00 34 1024.1
20260510141549 15 194 8.0 20.9 0.00 0.00 0.00 35 1024.1
20260510141038 16 187 9.7 20.9 0.00 0.00 0.00 33 1024.1
20260510140538 16 159 14.5 22.5 0.00 0.00 0.00 33 1023.9
20260510140043 16 164 12.9 22.5 0.00 0.00 0.00 34 1023.9
20260510135539 16 148 14.5 19.3 0.00 0.00 0.00 34 1023.8
20260510135040 16 146 8.0 12.9 0.00 0.00 0.00 34 1023.8
20260510134549 16 134 6.4 9.7 0.00 0.00 0.00 34 1023.7
20260510134039 15 178 4.8 9.7 0.00 0.00 0.00 34 1023.4
20260510133538 15 243 1.6 4.8 0.00 0.00 0.00 34 1023.4
20260510133045 15 296 0.0 3.2 0.00 0.00 0.00 34 1023.5
20260510132538 15 0 0.0 0.0 0.00 0.00 0.00 35 1023.3
20260510132038 14 0 0.0 0.0 0.00 0.00 0.00 35 1023.3
20260510131549 13 0 0.0 1.6 0.00 0.00 0.00 36 1023.1
20260510131038 13 0 0.0 3.2 0.00 0.00 0.00 37 1023.0
20260510130540 12 0 1.6 3.2 0.00 0.00 0.00 38 1023.0
20260510130045 12 321 1.6 4.8 0.00 0.00 0.00 38 1023.1
20260510125540 12 321 3.2 4.8 0.00 0.00 0.00 37 1023.1
20260510125037 13 176 0.0 3.2 0.00 0.00 0.00 36 1022.9
20260510124549 13 0 0.0 3.2 0.00 0.00 0.00 35 1022.9
20260510124037 13 0 0.0 1.6 0.00 0.00 0.00 35 1022.8
20260510123538 13 0 0.0 3.2 0.00 0.00 0.00 35 1022.8
20260510123056 13 0 0.0 3.2 0.00 0.00 0.00 35 1022.7
20260510122539 13 176 1.6 3.2 0.00 0.00 0.00 35 1022.7
20260510122038 13 176 0.0 4.8 0.00 0.00 0.00 35 1022.7
20260510121548 13 176 3.2 8.0 0.00 0.00 0.00 34 1022.6
20260510121041 14 176 4.8 9.7 0.00 0.00 0.00 34 1022.5
20260510120538 14 167 6.4 9.7 0.00 0.00 0.00 33 1022.5
20260510120048 15 159 4.8 11.3 0.00 0.00 0.00 33 1022.5
20260510115541 15 150 6.4 11.3 0.00 0.00 0.00 32 1022.4
20260510115038 15 146 6.4 14.5 0.00 0.00 0.00 30 1022.4
20260510114551 15 177 9.7 14.5 0.00 0.00 0.00 30 1022.4
20260510114039 16 211 8.0 12.9 0.00 0.00 0.00 29 1022.3
20260510113537 16 227 8.0 12.9 0.00 0.00 0.00 28 1022.4
20260510113056 16 239 9.7 12.9 0.00 0.00 0.00 28 1022.5
20260510112538 17 232 1.6 33.8 0.00 0.00 0.00 28 1022.4
20260510112039 16 5 9.7 33.8 0.00 0.00 0.00 28 1022.7
20260510111549 16 316 9.7 35.4 0.00 0.00 0.00 28 1022.9
20260510111040 16 121 22.5 48.3 0.00 0.00 0.00 31 1022.9
20260510110541 17 336 30.6 48.3 0.00 0.00 0.00 29 1023.1
20260510110052 17 264 9.7 33.8 0.00 0.00 0.00 28 1022.6
20260510105538 17 281 12.9 51.5 0.00 0.00 0.00 26 1022.2
20260510105038 17 234 30.6 51.5 0.00 0.00 0.00 28 1022.3
20260510104556 17 245 16.1 30.6 0.00 0.00 0.00 24 1022.3
20260510104037 17 234 19.3 30.6 0.00 0.00 0.00 25 1021.8
20260510103537 17 213 9.7 19.3 0.00 0.00 0.00 24 1021.7
20260510103044 17 223 8.0 19.3 0.00 0.00 0.00 24 1021.7
20260510102538 16 118 8.0 29.0 0.00 0.00 0.00 26 1021.6
20260510102037 14 229 11.3 29.0 0.00 0.00 0.00 28 1021.8
20260510101549 14 334 1.6 4.8 0.00 0.00 0.00 27 1021.6
20260510101037 14 196 3.2 4.8 0.00 0.00 0.00 27 1021.4
20260510100538 14 103 0.0 4.8 0.00 0.00 0.00 27 1021.3
20260510100052 15 103 0.0 6.4 0.00 0.00 0.00 26 1021.2
20260510095542 16 82 4.8 6.4 0.00 0.00 0.00 25 1021.3
20260510095038 15 352 4.8 8.0 0.00 0.00 0.00 25 1021.3
20260510094544 15 311 3.2 12.9 0.00 0.00 0.00 25 1021.3
20260510094038 15 298 8.0 12.9 0.00 0.00 0.00 24 1021.3
20260510093538 15 300 3.2 6.4 0.00 0.00 0.00 24 1021.1
20260510093051 15 0 0.0 8.0 0.00 0.00 0.00 24 1021.1
20260510092538 16 296 6.4 11.3 0.00 0.00 0.00 24 1021.2
20260510092037 16 303 6.4 12.9 0.00 0.00 0.00 24 1021.0
20260510091547 15 288 8.0 12.9 0.00 0.00 0.00 24 1021.0
20260510091040 15 286 9.7 12.9 0.00 0.00 0.00 24 1021.1
20260510090541 15 277 4.8 11.3 0.00 0.00 0.00 24 1021.1
20260510090046 15 277 6.4 9.7 0.00 0.00 0.00 25 1021.0
20260510085538 16 217 4.8 6.4 0.00 0.00 0.00 25 1020.8
20260510085038 17 320 3.2 4.8 0.00 0.00 0.00 24 1020.7
20260510084600 17 320 3.2 4.8 0.00 0.00 0.00 24 1020.5
20260510084038 16 320 3.2 6.4 0.00 0.00 0.00 24 1020.4
20260510083538 16 320 3.2 6.4 0.00 0.00 0.00 24 1020.5
20260510083110 16 297 4.8 6.4 0.00 0.00 0.00 24 1020.3
20260510082539 16 286 3.2 9.7 0.00 0.00 0.00 24 1020.3
20260510082038 16 281 6.4 9.7 0.00 0.00 0.00 24 1020.3
20260510081610 15 286 6.4 9.7 0.00 0.00 0.00 24 1020.4
20260510081038 16 279 6.4 9.7 0.00 0.00 0.00 23 1020.3
20260510080541 17 360 1.6 4.8 0.00 0.00 0.00 22 1020.3
20260510080043 18 29 1.6 6.4 0.00 0.00 0.00 22 1020.3
20260510075540 18 360 3.2 11.3 0.00 0.00 0.00 22 1020.3
20260510075038 18 42 4.8 11.3 0.00 0.00 0.00 22 1020.3
20260510074552 18 26 4.8 14.5 0.00 0.00 0.00 22 1020.2
20260510074038 18 352 8.0 16.1 0.00 0.00 0.00 21 1020.3
20260510073537 18 13 8.0 16.1 0.00 0.00 0.00 21 1020.1
20260510073051 18 5 8.0 17.7 0.00 0.00 0.00 21 1020.1
20260510072538 18 9 12.9 17.7 0.00 0.00 0.00 22 1020.1
20260510072040 18 9 8.0 16.1 0.00 0.00 0.00 22 1020.0
20260510071552 18 349 9.7 17.7 0.00 0.00 0.00 21 1020.0
20260510071038 18 11 11.3 17.7 0.00 0.00 0.00 21 1020.0
20260510070538 18 15 8.0 17.7 0.00 0.00 0.00 21 1020.0
20260510070044 18 360 11.3 17.7 0.00 0.00 0.00 21 1019.9
20260510065538 18 13 11.3 20.9 0.00 0.00 0.00 21 1019.8
20260510065041 18 13 12.9 20.9 0.00 0.00 0.00 21 1019.7
20260510064547 18 24 14.5 19.3 0.00 0.00 0.00 21 1019.7
20260510064038 18 28 11.3 17.7 0.00 0.00 0.00 21 1019.7
20260510063538 18 18 11.3 20.9 0.00 0.00 0.00 21 1019.8
20260510063049 18 27 11.3 24.1 0.00 0.00 0.00 21 1019.8
20260510062540 18 12 12.9 24.1 0.00 0.00 0.00 21 1019.7
20260510062039 18 360 12.9 22.5 0.00 0.00 0.00 20 1019.7
20260510061553 17 30 11.3 17.7 0.00 0.00 0.00 20 1019.6
20260510061038 17 17 11.3 17.7 0.00 0.00 0.00 20 1019.5
20260510060538 17 360 11.3 16.1 0.00 0.00 0.00 19 1019.6
20260510060049 17 5 8.0 14.5 0.00 0.00 0.00 19 1019.5
20260510055540 16 15 8.0 12.9 0.00 0.00 0.00 19 1019.5
20260510055040 16 352 4.8 8.0 0.00 0.00 0.00 19 1019.5
20260510054543 16 352 4.8 8.0 0.00 0.00 0.00 19 1019.4
20260510054040 16 5 4.8 6.4 0.00 0.00 0.00 19 1019.3
20260510053537 16 350 4.8 8.0 0.00 0.00 0.00 19 1019.2
20260510053054 17 350 6.4 9.7 0.00 0.00 0.00 18 1019.1
20260510052540 17 5 6.4 11.3 0.00 0.00 0.00 18 1019.1
20260510052040 17 352 8.0 16.1 0.00 0.00 0.00 17 1019.0
20260510051546 18 5 6.4 16.1 0.00 0.00 0.00 17 1019.0
20260510051042 18 327 11.3 16.1 0.00 0.00 0.00 17 1018.8
20260510050544 18 340 12.9 16.1 0.00 0.00 0.00 16 1018.9
20260510050051 18 338 11.3 16.1 0.00 0.00 0.00 16 1018.8
20260510045540 18 325 11.3 16.1 0.00 0.00 0.00 16 1018.7
20260510045040 19 334 8.0 17.7 0.00 0.00 0.00 16 1018.7
20260510044550 20 342 11.3 17.7 0.00 0.00 0.00 15 1018.7
20260510044040 20 343 14.5 20.9 0.00 0.00 0.00 15 1018.7
20260510043540 20 340 14.5 25.7 0.00 0.00 0.00 15 1018.7
20260510043048 20 349 16.1 27.4 0.00 0.00 0.00 15 1018.7
20260510042550 20 338 17.7 27.4 0.00 0.00 0.00 15 1018.6
20260510042043 20 323 14.5 29.0 0.00 0.00 0.00 15 1018.7
20260510041546 20 325 17.7 29.0 0.00 0.00 0.00 16 1018.7
20260510041039 19 322 16.1 24.1 0.00 0.00 0.00 16 1018.8
20260510040542 18 306 12.9 19.3 0.00 0.00 0.00 17 1018.7
20260510040059 17 304 4.8 8.0 0.00 0.00 0.00 19 1018.6
20260510035539 18 309 3.2 8.0 0.00 0.00 0.00 19 1018.6
20260510035041 19 307 4.8 8.0 0.00 0.00 0.00 18 1018.6
20260510034558 19 303 6.4 11.3 0.00 0.00 0.00 18 1018.6
20260510034040 19 298 6.4 11.3 0.00 0.00 0.00 19 1018.8
20260510033543 18 300 6.4 8.0 0.00 0.00 0.00 19 1018.8
20260510033048 18 297 6.4 9.7 0.00 0.00 0.00 19 1018.7
20260510032542 18 290 6.4 9.7 0.00 0.00 0.00 19 1018.7
20260510032041 18 292 4.8 9.7 0.00 0.00 0.00 19 1018.7
20260510031559 18 269 4.8 11.3 0.00 0.00 0.00 19 1018.6
20260510031041 20 272 8.0 14.5 0.00 0.00 0.00 18 1018.5
20260510030539 20 285 9.7 14.5 0.00 0.00 0.00 18 1018.6
20260510030051 20 282 6.4 9.7 0.00 0.00 0.00 18 1018.4
20260510025538 20 298 6.4 20.9 0.00 0.00 0.00 17 1018.4
20260510025041 21 311 12.9 22.5 0.00 0.00 0.00 17 1018.3
20260510024553 21 309 14.5 22.5 0.00 0.00 0.00 17 1018.3
20260510024038 21 284 14.5 22.5 0.00 0.00 0.00 17 1018.2
20260510023541 20 306 11.3 17.7 0.00 0.00 0.00 17 1018.0
20260510023054 21 311 6.4 14.5 0.00 0.00 0.00 17 1018.0
20260510022541 21 287 6.4 14.5 0.00 0.00 0.00 16 1017.9
20260510022041 22 300 8.0 17.7 0.00 0.00 0.00 16 1017.8
20260510021555 22 290 11.3 24.1 0.00 0.00 0.00 16 1017.9
20260510021040 22 306 12.9 24.1 0.00 0.00 0.00 16 1017.7
20260510020542 22 300 17.7 24.1 0.00 0.00 0.00 16 1017.6
20260510020046 22 306 16.1 32.2 0.00 0.00 0.00 16 1017.7
20260510015539 22 310 22.5 32.2 0.00 0.00 0.00 15 1017.6
20260510015039 22 292 16.1 24.1 0.00 0.00 0.00 15 1017.5
20260510014557 22 286 14.5 30.6 0.00 0.00 0.00 14 1017.3
20260510014038 23 295 22.5 30.6 0.00 0.00 0.00 14 1017.3
20260510013538 23 352 16.1 22.5 0.00 0.00 0.00 14 1017.2
20260510013101 23 304 16.1 29.0 0.00 0.00 0.00 14 1017.2
20260510012540 23 324 19.3 29.0 0.00 0.00 0.00 13 1017.1
20260510012039 23 296 16.1 24.1 0.00 0.00 0.00 13 1017.1
20260510011550 23 308 11.3 20.9 0.00 0.00 0.00 13 1017.1
20260510011043 23 288 12.9 27.4 0.00 0.00 0.00 13 1017.1
20260510010540 23 303 17.7 27.4 0.00 0.00 0.00 12 1017.0
20260510010050 23 305 17.7 24.1 0.00 0.00 0.00 12 1017.1
20260510005541 24 315 17.7 29.0 0.00 0.00 0.00 12 1016.9
20260510005041 24 340 19.3 35.4 0.00 0.00 0.00 12 1016.9
20260510004545 24 331 22.5 35.4 0.00 0.00 0.00 12 1016.7
20260510004038 24 292 17.7 29.0 0.00 0.00 0.00 11 1016.9
20260510003538 24 306 20.9 29.0 0.00 0.00 0.00 11 1016.9
20260510003050 25 332 16.1 32.2 0.00 0.00 0.00 11 1016.8
20260510002545 24 335 16.1 32.2 0.00 0.00 0.00 11 1017.0
20260510002041 24 325 20.9 30.6 0.00 0.00 0.00 11 1017.0
20260510001543 24 336 19.3 33.8 0.00 0.00 0.00 11 1017.0
20260510001042 25 330 22.5 33.8 0.00 0.00 0.00 10 1017.0
20260510000541 25 302 17.7 35.4 0.00 0.00 0.00 11 1016.9
20260510000050 25 311 27.4 35.4 0.00 0.00 0.00 11 1017.1
20260509235538 25 298 16.1 29.0 0.00 0.00 0.00 11 1016.9
20260509235038 24 338 20.9 32.2 0.00 0.00 0.00 10 1016.9
20260509234549 25 280 19.3 35.4 0.00 0.00 0.00 11 1017.0
20260509234045 25 296 20.9 38.6 0.00 0.00 0.00 11 1017.0
20260509233539 25 317 29.0 38.6 0.00 0.00 0.00 11 1017.0
20260509233053 25 336 22.5 29.0 0.00 0.00 0.00 11 1016.9
20260509232539 25 300 19.3 24.1 0.00 0.00 0.00 10 1017.2
20260509232041 25 322 12.9 35.4 0.00 0.00 0.00 11 1017.1
20260509231548 25 270 19.3 40.2 0.00 0.00 0.00 10 1017.1